Regional Weather Roundup
Issued by NWS Goodland, KS

Home | Current Version | Previous Version | Graphics & Text | Print | Product List | Glossary On
Versions: 1 2 3 4 5 6 7 8 9 10 11 12 13 14 15 16 17 18 19 20 21 22 23 24 25 26 27 28 29 30 31 32 33 34 35 36 37 38 39 40 41 42 43 44 45 46 47 48 49 50
000
ASUS43 KGLD 061159
RWRGLD

GOODLAND FORECAST AREA HOURLY WEATHER ROUNDUP
NATIONAL WEATHER SERVICE GOODLAND KS
500 AM MST FRI MAR 06 2015

...OFFICIAL OBSERVATIONS...

CITY           SKY/WX    TMP DP  RH WIND       PRES   REMARKS
GOODLAND KS    CLEAR     26  20  77 W10       30.25R WCI  16
HILL CITY KS   CLEAR     26  18  71 W9        30.27R
IMPERIAL NEB     N/A     27  17  66 W12       30.23R WCI  17
MCCOOK NEB     CLEAR     22  16  78 W8        30.25R
AKRON CO       CLEAR     25  17  72 W12       30.23S WCI  14
BURLINGTON CO  CLEAR     25  18  74 W9        30.25R
LIMON CO       PTCLDY     7   1  76 NW3       30.26R
$$

...UNOFFICIAL OBSERVATIONS...

CITY           SKY/WX    TMP DP  RH WIND       PRES   REMARKS
COLBY KS       CLEAR     25  23  93 W7        30.25S
GOVE KS          N/A     22  32 100 MISG        N/A
NORTON KS      CLEAR     19  14  79 W8        30.23F
SHARON SPRINGS   N/A     25  21  83 CALM        N/A
YUMA CO          N/A     22  17  81 W9          N/A
$$



USA.gov is the U.S. government's official web portal to all federal, state and local government web resources and services.